STARLINK-4631 (53786 NORAD) Tracking and Keplerian Element Data

This shows tracking and keplerian element data for the satellite.

Feedback or suggestion? Click here.




ElementValue
Catalog53786
NameSTARLINK-4631
Epoch Orbit1110
Epoch Day325.33334491
Epoch Year2022
RAAN277.8103
Inclination53.2161
Eccentricity0.0001557
Argument of Perigee44.8522
Mean Anonmoly167.9479
Mean Motion15.50321195
Decay Rate0.00071834
L11 53786U 22111P 22325.33334491 .00071834 00000+0 12427-2 0 9990
L22 53786 53.2161 277.8103 0001557 44.8522 167.9479 15.50321195 11108



Live tracking and technical data element details for STARLINK-4631 (NORAD 53786). STARLINK-4631 can be tracked NOW for your location showing map with azimuth and elevation plus other details from your city location.







IsCatalogInMostPopularTable: catalog: 53786, numindb: -1

Insert: records affected: 1


GetName: 53786 STARLINK-4631

Hit Count: inserted at: Thu, 08 Dec 2022 09:42:15 GMT